• In Hungary
  • List of Countries
  • For 7 days
  • Water Temperature
  • Satellite Maps
  • Weather Map
  • News
  • Weather Widgets
  • user-avatar
    Login

    Hourly Weather Miroslawiczki

    Today, 18 June, Monday

    Time Temperature Precipitation Wind Pressure Humidity
    00:00 +18°C° 0.4 mm 3 mps 749 mmHg 86%
    01:00 +17°C° 0 mm 3 mps 749 mmHg 93%
    02:00 +17°C° 0.1 mm 3 mps 749 mmHg 94%
    03:00 +16°C° 0.1 mm 3 mps 749 mmHg 95%
    04:00 +16°C° 0.1 mm 3 mps 749 mmHg 96%
    05:00 +17°C° 0 mm 3 mps 750 mmHg 92%
    06:00 +18°C° 0 mm 3 mps 750 mmHg 88%
    07:00 +19°C° 0 mm 3 mps 750 mmHg 84%
    08:00 +21°C° 0 mm 4 mps 751 mmHg 76%
    09:00 +22°C° 0 mm 4 mps 751 mmHg 68%
    10:00 +23°C° 0 mm 4 mps 751 mmHg 61%
    11:00 +25°C° 0 mm 4 mps 751 mmHg 58%
    12:00 +26°C° 0 mm 4 mps 751 mmHg 55%
    13:00 +26°C° 0 mm 4 mps 751 mmHg 52%
    14:00 +26°C° 0 mm 4 mps 751 mmHg 54%
    15:00 +26°C° 0 mm 4 mps 751 mmHg 55%
    16:00 +25°C° 0 mm 4 mps 751 mmHg 56%
    17:00 +24°C° 0 mm 3 mps 751 mmHg 61%
    18:00 +24°C° 0 mm 3 mps 751 mmHg 66%
    19:00 +23°C° 0 mm 2 mps 751 mmHg 71%
    20:00 +20°C° 0 mm 2 mps 751 mmHg 73%
    21:00 +19°C° 0 mm 2 mps 752 mmHg 75%
    22:00 +18°C° 0 mm 1 mps 752 mmHg 78%
    23:00 +18°C° 0 mm 1 mps 752 mmHg 79%

    Tomorrow, 19 June, Tuesday

    Time Temperature Precipitation Wind Pressure Humidity
    00:00 +16°C° 0 mm 2 mps 752 mmHg 79%
    01:00 +16°C° 0 mm 2 mps 752 mmHg 80%
    02:00 +16°C° 0 mm 2 mps 752 mmHg 81%
    03:00 +15°C° 0 mm 1 mps 752 mmHg 82%
    04:00 +15°C° 0 mm 1 mps 753 mmHg 83%
    05:00 +18°C° 0 mm 1 mps 753 mmHg 79%
    06:00 +19°C° 0 mm 2 mps 753 mmHg 74%
    07:00 +20°C° 0 mm 2 mps 753 mmHg 69%
    08:00 +23°C° 0 mm 2 mps 753 mmHg 66%
    09:00 +24°C° 0 mm 2 mps 753 mmHg 62%
    10:00 +25°C° 0 mm 2 mps 753 mmHg 59%
    11:00 +25°C° 0.1 mm 2 mps 753 mmHg 59%
    12:00 +26°C° 0.1 mm 2 mps 753 mmHg 59%
    13:00 +26°C° 0.1 mm 2 mps 753 mmHg 59%
    14:00 +26°C° 0.1 mm 3 mps 753 mmHg 59%
    15:00 +26°C° 0.1 mm 3 mps 752 mmHg 59%
    16:00 +27°C° 0.1 mm 3 mps 752 mmHg 59%
    17:00 +26°C° 0 mm 2 mps 752 mmHg 64%
    18:00 +25°C° 0 mm 2 mps 752 mmHg 68%
    19:00 +24°C° 0 mm 1 mps 752 mmHg 72%
    20:00 +23°C° 0 mm 1 mps 753 mmHg 74%
    21:00 +21°C° 0 mm 1 mps 753 mmHg 76%
    22:00 +20°C° 0 mm 1 mps 753 mmHg 78%
    23:00 +19°C° 0 mm 1 mps 753 mmHg 80%

    Day after tomorrow, 20 June, Wednesday

    Time Temperature Precipitation Wind Pressure Humidity
    00:00 +18°C° 0 mm 2 mps 754 mmHg 82%
    01:00 +17°C° 0 mm 2 mps 754 mmHg 84%
    02:00 +17°C° 0 mm 2 mps 754 mmHg 87%
    03:00 +16°C° 0 mm 2 mps 754 mmHg 89%
    04:00 +16°C° 0 mm 2 mps 754 mmHg 92%
    05:00 +17°C° 0 mm 2 mps 754 mmHg 88%
    06:00 +20°C° 0 mm 1 mps 754 mmHg 83%
    07:00 +22°C° 0 mm 1 mps 755 mmHg 79%
    08:00 +23°C° 0 mm 1 mps 754 mmHg 74%
    09:00 +24°C° 0 mm 2 mps 754 mmHg 69%
    10:00 +25°C° 0 mm 2 mps 754 mmHg 64%
    11:00 +26°C° 0.1 mm 2 mps 754 mmHg 62%
    12:00 +27°C° 0.1 mm 1 mps 754 mmHg 59%
    13:00 +28°C° 0.1 mm 1 mps 753 mmHg 57%
    14:00 +28°C° 0 mm 1 mps 753 mmHg 57%
    15:00 +28°C° 0 mm 1 mps 753 mmHg 57%
    16:00 +28°C° 0 mm 1 mps 752 mmHg 57%
    17:00 +27°C° 0 mm 1 mps 752 mmHg 61%
    18:00 +26°C° 0 mm 1 mps 752 mmHg 66%
    19:00 +25°C° 0 mm 1 mps 752 mmHg 71%
    20:00 +24°C° 0 mm 1 mps 752 mmHg 75%
    21:00 +23°C° 0 mm 1 mps 752 mmHg 78%
    22:00 +21°C° 0 mm 1 mps 752 mmHg 82%
    23:00 +21°C° 0 mm 1 mps 751 mmHg 83%

    21 June, Thursday

    Time Temperature Precipitation Wind Pressure Humidity
    00:00 +20°C° 0 mm 1 mps 751 mmHg 85%
    01:00 +20°C° 0 mm 1 mps 751 mmHg 86%
    02:00 +20°C° 0 mm 1 mps 750 mmHg 87%
    03:00 +19°C° 0 mm 1 mps 750 mmHg 88%
    04:00 +19°C° 0 mm 1 mps 749 mmHg 88%
    05:00 +20°C° 0 mm 2 mps 749 mmHg 83%
    06:00 +23°C° 0 mm 2 mps 749 mmHg 77%
    07:00 +25°C° 0 mm 2 mps 748 mmHg 71%
    08:00 +26°C° 0 mm 2 mps 748 mmHg 66%
    09:00 +28°C° 0 mm 3 mps 747 mmHg 61%
    10:00 +29°C° 0 mm 3 mps 747 mmHg 56%
    11:00 +30°C° 0.2 mm 3 mps 746 mmHg 55%
    12:00 +30°C° 0.2 mm 4 mps 745 mmHg 55%
    13:00 +32°C° 0.2 mm 4 mps 744 mmHg 55%
    14:00 +30°C° 0.7 mm 5 mps 744 mmHg 60%
    15:00 +29°C° 0.7 mm 5 mps 744 mmHg 65%
    16:00 +28°C° 0.7 mm 5 mps 743 mmHg 70%
    17:00 +26°C° 0.7 mm 5 mps 744 mmHg 75%
    18:00 +23°C° 0.7 mm 6 mps 744 mmHg 80%
    19:00 +21°C° 0.7 mm 6 mps 744 mmHg 86%
    20:00 +20°C° 0 mm 6 mps 745 mmHg 84%
    21:00 +17°C° 0 mm 6 mps 746 mmHg 81%
    22:00 +15°C° 0 mm 6 mps 747 mmHg 79%
    23:00 +14°C° 0 mm 5 mps 747 mmHg 77%

    22 June, Friday

    Time Temperature Precipitation Wind Pressure Humidity
    00:00 +13°C° 0 mm 5 mps 748 mmHg 76%
    01:00 +12°C° 0 mm 4 mps 748 mmHg 74%
    02:00 +11°C° 0 mm 4 mps 748 mmHg 73%
    03:00 +11°C° 0 mm 4 mps 749 mmHg 71%
    04:00 +11°C° 0 mm 4 mps 749 mmHg 70%
    05:00 +11°C° 0 mm 4 mps 749 mmHg 69%
    06:00 +10°C° 0 mm 5 mps 749 mmHg 68%
    07:00 +12°C° 0 mm 5 mps 749 mmHg 67%
    08:00 +13°C° 0 mm 6 mps 749 mmHg 63%
    09:00 +14°C° 0 mm 6 mps 749 mmHg 58%
    10:00 +15°C° 0 mm 6 mps 749 mmHg 53%
    11:00 +15°C° 0 mm 6 mps 749 mmHg 52%
    12:00 +16°C° 0 mm 6 mps 749 mmHg 50%
    13:00 +16°C° 0 mm 6 mps 749 mmHg 49%
    14:00 +16°C° 0 mm 6 mps 749 mmHg 50%
    15:00 +16°C° 0 mm 6 mps 749 mmHg 50%
    16:00 +16°C° 0 mm 6 mps 749 mmHg 50%
    17:00 +16°C° 0 mm 5 mps 749 mmHg 56%
    18:00 +15°C° 0 mm 4 mps 749 mmHg 61%
    19:00 +14°C° 0 mm 3 mps 749 mmHg 66%
    20:00 +13°C° 0.1 mm 3 mps 749 mmHg 71%
    21:00 +12°C° 0.1 mm 4 mps 749 mmHg 76%
    22:00 +11°C° 0.1 mm 4 mps 749 mmHg 81%
    23:00 +11°C° 0.2 mm 4 mps 749 mmHg 84%

    23 June, Saturday

    Time Temperature Precipitation Wind Pressure Humidity
    00:00 +11°C° 0.2 mm 4 mps 749 mmHg 88%
    01:00 +10°C° 0.2 mm 4 mps 749 mmHg 92%
    02:00 +10°C° 0.2 mm 4 mps 749 mmHg 92%
    03:00 +10°C° 0.2 mm 4 mps 749 mmHg 93%
    04:00 +10°C° 0.2 mm 4 mps 749 mmHg 93%
    05:00 +10°C° 0.1 mm 5 mps 749 mmHg 91%
    06:00 +10°C° 0.1 mm 5 mps 750 mmHg 88%
    07:00 +12°C° 0.1 mm 5 mps 750 mmHg 85%
    08:00 +13°C° 0.1 mm 5 mps 750 mmHg 78%
    09:00 +15°C° 0.1 mm 5 mps 750 mmHg 70%
    10:00 +16°C° 0.1 mm 5 mps 750 mmHg 63%
    11:00 +17°C° 0.1 mm 5 mps 750 mmHg 59%
    12:00 +17°C° 0.1 mm 5 mps 750 mmHg 56%
    13:00 +19°C° 0.1 mm 5 mps 750 mmHg 52%
    14:00 +19°C° 0 mm 5 mps 750 mmHg 52%
    15:00 +19°C° 0 mm 5 mps 750 mmHg 52%
    16:00 +19°C° 0 mm 5 mps 750 mmHg 52%
    17:00 +17°C° 0 mm 5 mps 750 mmHg 57%
    18:00 +17°C° 0 mm 4 mps 750 mmHg 62%
    19:00 +16°C° 0 mm 3 mps 751 mmHg 67%
    20:00 +14°C° 0 mm 3 mps 751 mmHg 70%
    21:00 +12°C° 0 mm 3 mps 752 mmHg 73%
    22:00 +11°C° 0 mm 3 mps 752 mmHg 77%
    23:00 +10°C° 0 mm 3 mps 752 mmHg 79%
    Show more